,,PA_Meas_PMT16A,,PR_Meas_QMR101_102,,RH_Meas_QMH101,,SR_Meas_QMS101,,TA_Meas_QMH101,,GenWind,,GenWind,
time,status,PA,status,PR,status,RH,status,SR,status,TA,status,DirAvg,status,SpdAvg,
2011-01-14, 00:00:04,VALID,917.058,VALID,0,VALID,96.4591,VALID,0,VALID,19.9158,VALID,16,VALID,0.25,
2011-01-14, 00:01:04,VALID,917.054,VALID,0,VALID,96.3752,VALID,0,VALID,19.9173,VALID,16,VALID,0.549219,
2011-01-14, 00:02:04,VALID,917.078,VALID,0,VALID,96.3752,VALID,0,VALID,19.8978,VALID,16,VALID,0.428125,
2011-01-14, 00:03:04,VALID,917.077,VALID,0,VALID,96.421,VALID,0,VALID,19.8768,VALID,16,VALID,0.358594,
2011-01-14, 00:04:04,VALID,917.059,VALID,0,VALID,96.4362,VALID,0,VALID,19.8963,VALID,16,VALID,0.333984,
2011-01-14, 00:05:04,VALID,917.07,VALID,0,VALID,96.421,VALID,0,VALID,19.8978,VALID,16,VALID,0,
2011-01-14, 00:06:04,VALID,917.05,VALID,0,VALID,96.4438,VALID,0,VALID,19.8768,VALID,16,VALID,0.146875,
2011-01-14, 00:07:04,VALID,917.056,VALID,0,VALID,96.4972,VALID,0,VALID,19.9173,VALID,16,VALID,0,
2011-01-14, 00:08:04,VALID,917.026,VALID,0,VALID,96.4133,VALID,0,VALID,19.8573,VALID,16,VALID,0,
2011-01-14, 00:09:04,VALID,916.997,VALID,0,VALID,96.3676,VALID,0,VALID,19.8588,VALID,16,VALID,0,
2011-01-14, 00:10:04,VALID,917.005,VALID,0,VALID,96.3447,VALID,0,VALID,19.8198,VALID,16,VALID,0.263281,
2011-01-14, 00:11:04,VALID,916.98,VALID,0,VALID,96.3142,VALID,0,VALID,19.7808,VALID,16,VALID,0.453906,
2011-01-14, 00:12:04,VALID,916.956,VALID,0,VALID,96.2761,VALID,0,VALID,19.7613,VALID,16,VALID,0.541016,
2011-01-14, 00:13:04,VALID,916.988,VALID,0,VALID,96.2456,VALID,0,VALID,19.7223,VALID,16,VALID,0.692187,
2011-01-14, 00:14:04,VALID,916.956,VALID,0,VALID,96.2609,VALID,0,VALID,19.6833,VALID,16,VALID,0.770703,
2011-01-14, 00:15:04,VALID,916.952,VALID,0,VALID,96.2914,VALID,0,VALID,19.6233,VALID,16,VALID,0.546094,
2011-01-14, 00:16:04,VALID,916.973,VALID,0,VALID,96.36,VALID,0,VALID,19.6248,VALID,16,VALID,0.36875,
2011-01-14, 00:17:04,VALID,916.93,VALID,0,VALID,96.421,VALID,0,VALID,19.6443,VALID,16,VALID,0.335547,
2011-01-14, 00:18:04,VALID,916.945,VALID,0,VALID,96.421,VALID,0,VALID,19.6038,VALID,16,VALID,0.279687,
2011-01-14, 00:19:04,VALID,916.97,VALID,0,VALID,96.3676,VALID,0,VALID,19.5648,VALID,16,VALID,0.577734,
2011-01-14, 00:20:04,VALID,916.974,VALID,0,VALID,96.3524,VALID,0,VALID,19.5273,VALID,16,VALID,0.932813,
2011-01-14, 00:21:04,VALID,916.961,VALID,0,VALID,96.4362,VALID,0,VALID,19.5063,VALID,16,VALID,0.933594,
2011-01-14, 00:22:04,VALID,916.977,VALID,0,VALID,96.4896,VALID,0,VALID,19.5078,VALID,16,VALID,0.921875,
2011-01-14, 00:23:04,VALID,916.948,VALID,0,VALID,96.5353,VALID,0,VALID,19.4868,VALID,16,VALID,0.569922,
2011-01-14, 00:24:04,VALID,916.962,VALID,0,VALID,96.5429,VALID,0,VALID,19.4868,VALID,16,VALID,0.628125,
2011-01-14, 00:25:04,VALID,916.95,VALID,0,VALID,96.6039,VALID,0,VALID,19.4868,VALID,16,VALID,0.619141,
2011-01-14, 00:26:04,VALID,916.974,VALID,0,VALID,96.642,VALID,0,VALID,19.5273,VALID,16,VALID,0.552344,
2011-01-14, 00:27:04,VALID,916.996,VALID,0,VALID,96.6649,VALID,0,VALID,19.5258,VALID,16,VALID,0.551172,
2011-01-14, 00:28:04,VALID,916.971,VALID,0,VALID,96.6497,VALID,0,VALID,19.5078,VALID,16,VALID,0.637891,
2011-01-14, 00:29:04,VALID,916.965,VALID,0,VALID,96.5811,VALID,0,VALID,19.4688,VALID,16,VALID,0.726953,
2011-01-14, 00:30:04,VALID,916.957,VALID,0,VALID,96.6268,VALID,0,VALID,19.4883,VALID,16,VALID,0.665625,
2011-01-14, 00:31:04,VALID,916.971,VALID,0,VALID,96.703,VALID,0,VALID,19.5078,VALID,16,VALID,0.636719,
2011-01-14, 00:32:04,VALID,916.97,VALID,0,VALID,96.703,VALID,0,VALID,19.4883,VALID,16,VALID,0.594531,
2011-01-14, 00:33:04,VALID,916.988,VALID,0,VALID,96.7107,VALID,0,VALID,19.5078,VALID,16,VALID,0.633594,
2011-01-14, 00:34:04,VALID,916.994,VALID,0,VALID,96.703,VALID,0,VALID,19.4868,VALID,16,VALID,0.682813,
2011-01-14, 00:35:04,VALID,917.03,VALID,0,VALID,96.7335,VALID,0,VALID,19.4868,VALID,16,VALID,0.417969,
2011-01-14, 00:36:04,VALID,917.043,VALID,0,VALID,96.7411,VALID,0,VALID,19.5468,VALID,16,VALID,0.358594,
2011-01-14, 00:37:04,VALID,917.065,VALID,0,VALID,96.6649,VALID,0,VALID,19.5078,VALID,16,VALID,0.567969,
2011-01-14, 00:38:04,VALID,917.041,VALID,0,VALID,96.6268,VALID,0,VALID,19.4688,VALID,16,VALID,0.523828,
2011-01-14, 00:39:04,VALID,917.059,VALID,0,VALID,96.6878,VALID,0,VALID,19.4673,VALID,16,VALID,0.480859,
2011-01-14, 00:40:04,VALID,917.06,VALID,0,VALID,96.7259,VALID,0,VALID,19.4868,VALID,16,VALID,0.716016,
2011-01-14, 00:41:04,VALID,917.067,VALID,0,VALID,96.7564,VALID,0,VALID,19.4883,VALID,16,VALID,0.707812,
2011-01-14, 00:42:04,VALID,917.082,VALID,0,VALID,96.7488,VALID,0,VALID,19.4868,VALID,16,VALID,0.442578,
2011-01-14, 00:43:04,VALID,917.085,VALID,0,VALID,96.7259,VALID,0,VALID,19.4688,VALID,16,VALID,0.479688,
2011-01-14, 00:44:04,VALID,917.07,VALID,0,VALID,96.7107,VALID,0,VALID,19.4283,VALID,16,VALID,0.351563,
2011-01-14, 00:45:04,VALID,917.069,VALID,0,VALID,96.7107,VALID,0,VALID,19.4493,VALID,16,VALID,0.447266,
2011-01-14, 00:46:04,VALID,917.021,VALID,0,VALID,96.6878,VALID,0,VALID,19.4103,VALID,16,VALID,0.665234,
2011-01-14, 00:47:04,VALID,917.004,VALID,0,VALID,96.703,VALID,0,VALID,19.4103,VALID,16,VALID,0.323438,
2011-01-14, 00:48:04,VALID,917.009,VALID,0,VALID,96.7107,VALID,0,VALID,19.3698,VALID,16,VALID,0.397266,
2011-01-14, 00:49:04,VALID,916.993,VALID,0,VALID,96.7335,VALID,0,VALID,19.3713,VALID,16,VALID,0.383984,
2011-01-14, 00:50:04,VALID,916.978,VALID,0,VALID,96.7107,VALID,0,VALID,19.3713,VALID,16,VALID,0.535937,
2011-01-14, 00:51:04,VALID,916.997,VALID,0,VALID,96.7488,VALID,0,VALID,19.3323,VALID,16,VALID,0.606641,
2011-01-14, 00:52:04,VALID,916.964,VALID,0,VALID,96.7335,VALID,0,VALID,19.3323,VALID,16,VALID,0.50625,
2011-01-14, 00:53:04,VALID,916.975,VALID,0,VALID,96.764,VALID,0,VALID,19.3128,VALID,16,VALID,0.490625,
2011-01-14, 00:54:04,VALID,916.958,VALID,0,VALID,96.7793,VALID,0,VALID,19.3128,VALID,16,VALID,0.616016,
2011-01-14, 00:55:04,VALID,916.938,VALID,0,VALID,96.8174,VALID,0,VALID,19.3128,VALID,17,VALID,0.578125,
2011-01-14, 00:56:04,VALID,916.935,VALID,0,VALID,96.8174,VALID,0,VALID,19.3128,VALID,17,VALID,0.683984,
2011-01-14, 00:57:04,VALID,916.88,VALID,0,VALID,96.8326,VALID,0,VALID,19.3128,VALID,16,VALID,0.55625,
2011-01-14, 00:58:04,VALID,916.901,VALID,0,VALID,96.8555,VALID,0,VALID,19.3323,VALID,16,VALID,0.507813,
2011-01-14, 00:59:04,VALID,916.886,VALID,0,VALID,96.8631,VALID,0,VALID,19.3518,VALID,16,VALID,0.346875,
2011-01-14, 01:00:04,VALID,916.872,VALID,0,VALID,96.8707,VALID,0,VALID,19.3518,VALID,16,VALID,0.39375,
2011-01-14, 01:01:04,VALID,916.87,VALID,0,VALID,96.8707,VALID,0,VALID,19.3308,VALID,16,VALID,0.547656,
2011-01-14, 01:02:04,VALID,916.895,VALID,0,VALID,96.8707,VALID,0,VALID,19.3923,VALID,16,VALID,0.573828,
2011-01-14, 01:03:04,VALID,916.883,VALID,0,VALID,96.886,VALID,0,VALID,19.3713,VALID,16,VALID,0.802734,
2011-01-14, 01:04:04,VALID,916.865,VALID,0,VALID,96.8631,VALID,0,VALID,19.3908,VALID,16,VALID,0.806641,
2011-01-14, 01:05:04,VALID,916.889,VALID,0,VALID,96.8631,VALID,0,VALID,19.3713,VALID,16,VALID,0.780859,
2011-01-14, 01:06:04,VALID,916.889,VALID,0,VALID,96.825,VALID,0,VALID,19.3908,VALID,16,VALID,0.753516,
2011-01-14, 01:07:04,VALID,916.839,VALID,0,VALID,96.8326,VALID,0,VALID,19.3908,VALID,16,VALID,0.722266,
2011-01-14, 01:08:04,VALID,916.802,VALID,0,VALID,96.8098,VALID,0,VALID,19.3713,VALID,16,VALID,0.694531,
2011-01-14, 01:09:04,VALID,916.811,VALID,0,VALID,96.8326,VALID,0,VALID,19.3713,VALID,16,VALID,0.742578,
2011-01-14, 01:10:04,VALID,916.807,VALID,0,VALID,96.8555,VALID,0,VALID,19.3713,VALID,16,VALID,0.785937,
2011-01-14, 01:11:04,VALID,916.784,VALID,0,VALID,96.8479,VALID,0,VALID,19.3698,VALID,16,VALID,0.615234,
2011-01-14, 01:12:04,VALID,916.729,VALID,0,VALID,96.825,VALID,0,VALID,19.3713,VALID,16,VALID,0.713672,
2011-01-14, 01:13:04,VALID,916.714,VALID,0,VALID,96.8098,VALID,0,VALID,19.3908,VALID,16,VALID,0.457812,
2011-01-14, 01:14:04,VALID,916.686,VALID,0,VALID,96.8021,VALID,0,VALID,19.3698,VALID,17,VALID,0.595703,
2011-01-14, 01:15:04,VALID,916.695,VALID,0,VALID,96.7793,VALID,0,VALID,19.3713,VALID,16,VALID,0.539844,
2011-01-14, 01:16:04,VALID,916.681,VALID,0,VALID,96.7488,VALID,0,VALID,19.3908,VALID,16,VALID,0.684375,
2011-01-14, 01:17:04,VALID,916.633,VALID,0,VALID,96.8021,VALID,0,VALID,19.3908,VALID,16,VALID,0.599609,
2011-01-14, 01:18:04,VALID,916.64,VALID,0,VALID,96.7259,VALID,0,VALID,19.3908,VALID,17,VALID,0.664844,
2011-01-14, 01:19:04,VALID,916.634,VALID,0,VALID,96.7107,VALID,0,VALID,19.3713,VALID,16,VALID,0.600781,
2011-01-14, 01:20:04,VALID,916.607,VALID,0,VALID,96.703,VALID,0,VALID,19.3713,VALID,16,VALID,0.80625,
2011-01-14, 01:21:04,VALID,916.555,VALID,0,VALID,96.6954,VALID,0,VALID,19.3713,VALID,16,VALID,0.775781,
2011-01-14, 01:22:04,VALID,916.589,VALID,0,VALID,96.7411,VALID,0,VALID,19.3713,VALID,16,VALID,0.724219,
2011-01-14, 01:23:04,VALID,916.571,VALID,0,VALID,96.7564,VALID,0,VALID,19.3908,VALID,16,VALID,0.405078,
2011-01-14, 01:24:04,VALID,916.544,VALID,0,VALID,96.8021,VALID,0,VALID,19.4118,VALID,16,VALID,0.132813,
2011-01-14, 01:25:04,VALID,916.526,VALID,0,VALID,96.8021,VALID,0,VALID,19.4298,VALID,16,VALID,0.390234,
2011-01-14, 01:26:04,VALID,916.512,VALID,0,VALID,96.8098,VALID,0,VALID,19.4493,VALID,16,VALID,0.2625,
2011-01-14, 01:27:04,VALID,916.512,VALID,0,VALID,96.8098,VALID,0,VALID,19.4898,VALID,16,VALID,0.0195313,
2011-01-14, 01:28:04,VALID,916.527,VALID,0,VALID,96.825,VALID,0,VALID,19.4883,VALID,16,VALID,0.160938,
2011-01-14, 01:29:04,VALID,916.514,VALID,0,VALID,96.8174,VALID,0,VALID,19.5288,VALID,16,VALID,0.254687,
2011-01-14, 01:30:04,VALID,916.458,VALID,0,VALID,96.8174,VALID,0,VALID,19.5078,VALID,16,VALID,0,
2011-01-14, 01:31:04,VALID,916.463,VALID,0,VALID,96.7793,VALID,0,VALID,19.4868,VALID,16,VALID,0,
2011-01-14, 01:32:04,VALID,916.474,VALID,0,VALID,96.7488,VALID,0,VALID,19.5078,VALID,16,VALID,0.0167969,
2011-01-14, 01:33:04,VALID,916.487,VALID,0,VALID,96.7335,VALID,0,VALID,19.4673,VALID,17,VALID,0.260547,
2011-01-14, 01:34:04,VALID,916.456,VALID,0,VALID,96.703,VALID,0,VALID,19.5078,VALID,16,VALID,0.36875,
2011-01-14, 01:35:04,VALID,916.452,VALID,0,VALID,96.6878,VALID,0,VALID,19.4883,VALID,16,VALID,0.372266,
2011-01-14, 01:36:04,VALID,916.405,VALID,0,VALID,96.6878,VALID,0,VALID,19.4688,VALID,16,VALID,0.354688,
2011-01-14, 01:37:04,VALID,916.428,VALID,0,VALID,96.6878,VALID,0,VALID,19.4493,VALID,16,VALID,0.485156,
2011-01-14, 01:38:04,VALID,916.382,VALID,0,VALID,96.6802,VALID,0,VALID,19.4493,VALID,16,VALID,0.549219,
2011-01-14, 01:39:04,VALID,916.373,VALID,0,VALID,96.703,VALID,0,VALID,19.4298,VALID,16,VALID,0.434766,
2011-01-14, 01:40:04,VALID,916.359,VALID,0,VALID,96.7183,VALID,0,VALID,19.4508,VALID,16,VALID,0.329688,
2011-01-14, 01:41:04,VALID,916.324,VALID,0,VALID,96.7107,VALID,0,VALID,19.4088,VALID,16,VALID,0.410156,
2011-01-14, 01:42:04,VALID,916.271,VALID,0,VALID,96.7183,VALID,0,VALID,19.4103,VALID,16,VALID,0.457031,
2011-01-14, 01:43:04,VALID,916.306,VALID,0,VALID,96.7411,VALID,0,VALID,19.4103,VALID,16,VALID,0.638281,
2011-01-14, 01:44:04,VALID,916.287,VALID,0,VALID,96.7259,VALID,0,VALID,19.4103,VALID,16,VALID,0.457422,
2011-01-14, 01:45:04,VALID,916.223,VALID,0,VALID,96.7411,VALID,0,VALID,19.4103,VALID,16,VALID,0.380469,
2011-01-14, 01:46:04,VALID,916.269,VALID,0,VALID,96.7488,VALID,0,VALID,19.4103,VALID,16,VALID,0.410156,
2011-01-14, 01:47:04,VALID,916.209,VALID,0,VALID,96.7335,VALID,0,VALID,19.4313,VALID,16,VALID,0.427344,
2011-01-14, 01:48:04,VALID,916.213,VALID,0,VALID,96.703,VALID,0,VALID,19.4313,VALID,16,VALID,0.457812,
2011-01-14, 01:49:04,VALID,916.219,VALID,0,VALID,96.6954,VALID,0,VALID,19.4103,VALID,16,VALID,0.562109,
2011-01-14, 01:50:04,VALID,916.187,VALID,0,VALID,96.6725,VALID,0,VALID,19.4298,VALID,16,VALID,0.838672,
2011-01-14, 01:51:04,VALID,916.158,VALID,0,VALID,96.6497,VALID,0,VALID,19.4298,VALID,16,VALID,0.843359,
2011-01-14, 01:52:04,VALID,916.139,VALID,0,VALID,96.642,VALID,0,VALID,19.4088,VALID,17,VALID,0.580469,
2011-01-14, 01:53:04,VALID,916.151,VALID,0,VALID,96.6115,VALID,0,VALID,19.4298,VALID,16,VALID,0.359375,
2011-01-14, 01:54:04,VALID,916.113,VALID,0,VALID,96.6344,VALID,0,VALID,19.4493,VALID,16,VALID,0.410547,
2011-01-14, 01:55:04,VALID,916.088,VALID,0,VALID,96.6268,VALID,0,VALID,19.4493,VALID,16,VALID,0.200781,
2011-01-14, 01:56:04,VALID,916.046,VALID,0,VALID,96.642,VALID,0,VALID,19.4298,VALID,16,VALID,0.235547,
2011-01-14, 01:57:04,VALID,916.04,VALID,0,VALID,96.5811,VALID,0,VALID,19.4493,VALID,17,VALID,0.580078,
2011-01-14, 01:58:04,VALID,916.029,VALID,0,VALID,96.5582,VALID,0,VALID,19.4103,VALID,16,VALID,0.572266,
2011-01-14, 01:59:04,VALID,916.006,VALID,0,VALID,96.5353,VALID,0,VALID,19.4103,VALID,16,VALID,0.661328,
2011-01-14, 02:00:04,VALID,915.971,VALID,0,VALID,96.4591,VALID,0,VALID,19.3518,VALID,16,VALID,0.551562,
2011-01-14, 02:01:04,VALID,915.949,VALID,0,VALID,96.4743,VALID,0,VALID,19.3518,VALID,16,VALID,0.583203,
2011-01-14, 02:02:04,VALID,915.937,VALID,0,VALID,96.5353,VALID,0,VALID,19.3518,VALID,16,VALID,0.517578,
2011-01-14, 02:03:04,VALID,915.933,VALID,0,VALID,96.5353,VALID,0,VALID,19.3323,VALID,16,VALID,0.622266,
2011-01-14, 02:04:04,VALID,915.923,VALID,0,VALID,96.5277,VALID,0,VALID,19.3533,VALID,16,VALID,0.612891,
2011-01-14, 02:05:04,VALID,915.945,VALID,0,VALID,96.5658,VALID,0,VALID,19.3128,VALID,16,VALID,0.647656,
2011-01-14, 02:06:04,VALID,915.94,VALID,0,VALID,96.5963,VALID,0,VALID,19.3323,VALID,16,VALID,0.598047,
2011-01-14, 02:07:04,VALID,915.913,VALID,0,VALID,96.6039,VALID,0,VALID,19.3323,VALID,16,VALID,0.480469,
2011-01-14, 02:08:04,VALID,915.91,VALID,0,VALID,96.6115,VALID,0,VALID,19.3518,VALID,16,VALID,0.575,
2011-01-14, 02:09:04,VALID,915.892,VALID,0,VALID,96.642,VALID,0,VALID,19.3713,VALID,16,VALID,0.612109,
2011-01-14, 02:10:04,VALID,915.918,VALID,0,VALID,96.6497,VALID,0,VALID,19.3713,VALID,16,VALID,0.445313,
2011-01-14, 02:11:04,VALID,915.873,VALID,0,VALID,96.6725,VALID,0,VALID,19.3908,VALID,16,VALID,0.355859,
2011-01-14, 02:12:04,VALID,915.866,VALID,0,VALID,96.703,VALID,0,VALID,19.4103,VALID,16,VALID,0.405469,
2011-01-14, 02:13:04,VALID,915.826,VALID,0,VALID,96.7259,VALID,0,VALID,19.3893,VALID,16,VALID,0.360547,
2011-01-14, 02:14:04,VALID,915.81,VALID,0,VALID,96.703,VALID,0,VALID,19.4298,VALID,16,VALID,0.046875,
2011-01-14, 02:15:04,VALID,915.805,VALID,0,VALID,96.7107,VALID,0,VALID,19.4298,VALID,16,VALID,0.353516,
2011-01-14, 02:16:04,VALID,915.777,VALID,0,VALID,96.7259,VALID,0,VALID,19.4298,VALID,16,VALID,0.336328,
2011-01-14, 02:17:04,VALID,915.759,VALID,0,VALID,96.7183,VALID,0,VALID,19.4283,VALID,16,VALID,0.582812,
2011-01-14, 02:18:04,VALID,915.746,VALID,0,VALID,96.703,VALID,0,VALID,19.4298,VALID,16,VALID,0.475,
2011-01-14, 02:19:04,VALID,915.731,VALID,0,VALID,96.7183,VALID,0,VALID,19.4103,VALID,16,VALID,0.678125,
2011-01-14, 02:20:04,VALID,915.706,VALID,0,VALID,96.7259,VALID,0,VALID,19.4103,VALID,16,VALID,0.346484,
2011-01-14, 02:21:04,VALID,915.69,VALID,0,VALID,96.7488,VALID,0,VALID,19.3908,VALID,17,VALID,0.684375,
2011-01-14, 02:22:04,VALID,915.652,VALID,0,VALID,96.7488,VALID,0,VALID,19.3713,VALID,17,VALID,0.820703,
2011-01-14, 02:23:04,VALID,915.673,VALID,0,VALID,96.7259,VALID,0,VALID,19.3518,VALID,17,VALID,0.567578,
2011-01-14, 02:24:04,VALID,915.646,VALID,0,VALID,96.7411,VALID,0,VALID,19.3323,VALID,17,VALID,0.541016,
2011-01-14, 02:25:04,VALID,915.642,VALID,0,VALID,96.7945,VALID,0,VALID,19.3323,VALID,17,VALID,0.622266,
2011-01-14, 02:26:04,VALID,915.647,VALID,0,VALID,96.7869,VALID,0,VALID,19.3323,VALID,17,VALID,0.722656,
2011-01-14, 02:27:04,VALID,915.627,VALID,0,VALID,96.7869,VALID,0,VALID,19.3323,VALID,17,VALID,0.48125,
2011-01-14, 02:28:04,VALID,915.604,VALID,0,VALID,96.8326,VALID,0,VALID,19.3323,VALID,17,VALID,0.615234,
2011-01-14, 02:29:04,VALID,915.615,VALID,0,VALID,96.8555,VALID,0,VALID,19.3323,VALID,17,VALID,0.892578,
2011-01-14, 02:30:04,VALID,915.598,VALID,0,VALID,96.8555,VALID,0,VALID,19.3323,VALID,17,VALID,0.616797,
2011-01-14, 02:31:04,VALID,915.613,VALID,0,VALID,96.8555,VALID,0,VALID,19.2933,VALID,17,VALID,0.873047,
2011-01-14, 02:32:04,VALID,915.568,VALID,0,VALID,96.8021,VALID,0,VALID,19.2738,VALID,17,VALID,0.568359,
2011-01-14, 02:33:04,VALID,915.589,VALID,0,VALID,96.7945,VALID,0,VALID,19.2139,VALID,17,VALID,0.738672,
2011-01-14, 02:34:04,VALID,915.592,VALID,0,VALID,96.8479,VALID,0.107441,VALID,19.1944,VALID,17,VALID,0.779688,
2011-01-14, 02:35:04,VALID,915.565,VALID,0,VALID,96.8555,VALID,0,VALID,19.2153,VALID,17,VALID,0.704297,
2011-01-14, 02:36:04,VALID,915.607,VALID,0,VALID,96.8784,VALID,0,VALID,19.1958,VALID,17,VALID,0.284375,
2011-01-14, 02:37:04,VALID,915.56,VALID,0,VALID,96.9165,VALID,0,VALID,19.2153,VALID,17,VALID,0,
2011-01-14, 02:38:04,VALID,915.569,VALID,0,VALID,96.9622,VALID,0,VALID,19.2153,VALID,17,VALID,0,
2011-01-14, 02:39:04,VALID,915.544,VALID,0,VALID,96.9394,VALID,0,VALID,19.2543,VALID,17,VALID,0,
2011-01-14, 02:40:04,VALID,915.559,VALID,0,VALID,96.9546,VALID,0,VALID,19.2543,VALID,17,VALID,0,
2011-01-14, 02:41:04,VALID,915.555,VALID,0,VALID,96.947,VALID,0,VALID,19.2543,VALID,17,VALID,0,
2011-01-14, 02:42:04,VALID,915.531,VALID,0,VALID,96.9394,VALID,0,VALID,19.2543,VALID,17,VALID,0,
2011-01-14, 02:43:04,VALID,915.536,VALID,0,VALID,96.9165,VALID,0,VALID,19.2543,VALID,17,VALID,0,
2011-01-14, 02:44:04,VALID,915.542,VALID,0,VALID,96.9546,VALID,0,VALID,19.2738,VALID,17,VALID,0,
2011-01-14, 02:45:04,VALID,915.551,VALID,0,VALID,96.9394,VALID,0,VALID,19.2723,VALID,17,VALID,0,
2011-01-14, 02:46:04,VALID,915.538,VALID,0,VALID,96.9775,VALID,0,VALID,19.2918,VALID,17,VALID,0,
2011-01-14, 02:47:04,VALID,915.555,VALID,0,VALID,96.886,VALID,0,VALID,19.2918,VALID,17,VALID,0,
2011-01-14, 02:48:04,VALID,915.549,VALID,0,VALID,96.8403,VALID,0,VALID,19.2528,VALID,17,VALID,0,
2011-01-14, 02:49:04,VALID,915.519,VALID,0,VALID,96.8403,VALID,0,VALID,19.2348,VALID,17,VALID,0,
2011-01-14, 02:50:04,VALID,915.54,VALID,0,VALID,96.8403,VALID,0,VALID,19.1944,VALID,17,VALID,0,
2011-01-14, 02:51:04,VALID,915.538,VALID,0,VALID,96.8555,VALID,0,VALID,19.1944,VALID,17,VALID,0,
2011-01-14, 02:52:04,VALID,915.533,VALID,0,VALID,96.886,VALID,0,VALID,19.2153,VALID,17,VALID,0,
2011-01-14, 02:53:04,VALID,915.518,VALID,0,VALID,96.8098,VALID,0,VALID,19.2153,VALID,17,VALID,0,
2011-01-14, 02:54:04,VALID,915.505,VALID,0,VALID,96.7564,VALID,0,VALID,19.1359,VALID,17,VALID,0,
2011-01-14, 02:55:04,VALID,915.537,VALID,0,VALID,96.7564,VALID,0.107441,VALID,19.0969,VALID,17,VALID,0.585938,
2011-01-14, 02:56:04,VALID,915.538,VALID,0,VALID,96.7945,VALID,0,VALID,19.0774,VALID,17,VALID,0.483984,
2011-01-14, 02:57:04,VALID,915.532,VALID,0,VALID,96.8479,VALID,0,VALID,19.0969,VALID,17,VALID,0.352734,
2011-01-14, 02:58:04,VALID,915.555,VALID,0,VALID,96.8631,VALID,0.107441,VALID,19.0969,VALID,17,VALID,0.176172,
2011-01-14, 02:59:04,VALID,915.578,VALID,0,VALID,96.8555,VALID,0,VALID,19.0983,VALID,17,VALID,0.157031,
2011-01-14, 03:00:04,VALID,915.576,VALID,0,VALID,96.8403,VALID,0,VALID,19.0774,VALID,17,VALID,0.134766,
2011-01-14, 03:01:04,VALID,915.572,VALID,0,VALID,96.7716,VALID,0.107441,VALID,19.0384,VALID,17,VALID,0,
2011-01-14, 03:02:04,VALID,915.576,VALID,0,VALID,96.7793,VALID,0.107441,VALID,19.0593,VALID,17,VALID,0,
2011-01-14, 03:03:04,VALID,915.599,VALID,0,VALID,96.8403,VALID,0,VALID,19.0579,VALID,17,VALID,0,
2011-01-14, 03:04:04,VALID,915.57,VALID,0,VALID,96.947,VALID,0.107441,VALID,19.1164,VALID,17,VALID,0.291406,
2011-01-14, 03:05:04,VALID,915.58,VALID,0,VALID,96.947,VALID,0,VALID,19.1359,VALID,17,VALID,0,
2011-01-14, 03:06:04,VALID,915.591,VALID,0,VALID,96.9317,VALID,0,VALID,19.1749,VALID,17,VALID,0,
2011-01-14, 03:07:04,VALID,915.609,VALID,0,VALID,96.886,VALID,0,VALID,19.1749,VALID,17,VALID,0,
2011-01-14, 03:08:04,VALID,915.611,VALID,0,VALID,96.8555,VALID,0,VALID,19.1749,VALID,17,VALID,0,
2011-01-14, 03:09:04,VALID,915.613,VALID,0,VALID,96.8707,VALID,0,VALID,19.1958,VALID,17,VALID,0.353906,
2011-01-14, 03:10:04,VALID,915.634,VALID,0,VALID,96.9089,VALID,0,VALID,19.1944,VALID,17,VALID,0.475781,
2011-01-14, 03:11:04,VALID,915.623,VALID,0,VALID,96.9012,VALID,0,VALID,19.2348,VALID,17,VALID,0.221094,
2011-01-14, 03:12:04,VALID,915.638,VALID,0,VALID,96.8707,VALID,0,VALID,19.2153,VALID,17,VALID,0.269141,
2011-01-14, 03:13:04,VALID,915.636,VALID,0,VALID,96.8479,VALID,0,VALID,19.1958,VALID,17,VALID,0.214844,
2011-01-14, 03:14:04,VALID,915.631,VALID,0,VALID,96.8098,VALID,0,VALID,19.1554,VALID,17,VALID,0.50625,
2011-01-14, 03:15:04,VALID,915.63,VALID,0,VALID,96.7945,VALID,0.107441,VALID,19.1359,VALID,17,VALID,0.557813,
2011-01-14, 03:16:04,VALID,915.623,VALID,0,VALID,96.7488,VALID,0,VALID,19.0983,VALID,17,VALID,0.481641,
2011-01-14, 03:17:04,VALID,915.649,VALID,0,VALID,96.7411,VALID,0.107441,VALID,19.0579,VALID,17,VALID,0.522266,
2011-01-14, 03:18:04,VALID,915.618,VALID,0,VALID,96.7183,VALID,0,VALID,19.0398,VALID,17,VALID,0.445703,
2011-01-14, 03:19:04,VALID,915.639,VALID,0,VALID,96.7183,VALID,0,VALID,19.0008,VALID,17,VALID,0.435547,
2011-01-14, 03:20:04,VALID,915.624,VALID,0,VALID,96.764,VALID,0,VALID,18.9814,VALID,17,VALID,0.330078,
2011-01-14, 03:21:04,VALID,915.648,VALID,0,VALID,96.7945,VALID,0.107441,VALID,18.9799,VALID,17,VALID,0.222656,
2011-01-14, 03:22:04,VALID,915.626,VALID,0,VALID,96.8174,VALID,0,VALID,18.9814,VALID,17,VALID,0.270703,
2011-01-14, 03:23:04,VALID,915.61,VALID,0,VALID,96.8631,VALID,0,VALID,18.9799,VALID,17,VALID,0.226563,
2011-01-14, 03:24:04,VALID,915.622,VALID,0,VALID,96.8479,VALID,0,VALID,19.0008,VALID,17,VALID,0.409375,
2011-01-14, 03:25:04,VALID,915.598,VALID,0,VALID,96.8631,VALID,0,VALID,18.9799,VALID,17,VALID,0.374219,
2011-01-14, 03:26:04,VALID,915.614,VALID,0,VALID,96.9165,VALID,0,VALID,18.9994,VALID,17,VALID,0.461328,
2011-01-14, 03:27:04,VALID,915.605,VALID,0,VALID,96.8936,VALID,0,VALID,19.0203,VALID,17,VALID,0.567187,
2011-01-14, 03:28:04,VALID,915.585,VALID,0,VALID,96.886,VALID,0,VALID,19.0203,VALID,17,VALID,0.355078,
2011-01-14, 03:29:04,VALID,915.6,VALID,0,VALID,96.9089,VALID,0,VALID,19.0203,VALID,17,VALID,0.292578,
2011-01-14, 03:30:04,VALID,915.601,VALID,0,VALID,96.9317,VALID,0,VALID,19.0203,VALID,17,VALID,0.0457031,
2011-01-14, 03:31:04,VALID,915.599,VALID,0,VALID,96.9165,VALID,0,VALID,19.0398,VALID,17,VALID,0.104297,
2011-01-14, 03:32:04,VALID,915.569,VALID,0,VALID,96.9012,VALID,0,VALID,19.0203,VALID,17,VALID,0.308203,
2011-01-14, 03:33:04,VALID,915.572,VALID,0,VALID,96.9089,VALID,0,VALID,19.0203,VALID,17,VALID,0.261328,
2011-01-14, 03:34:04,VALID,915.535,VALID,0,VALID,96.9394,VALID,0,VALID,19.0189,VALID,17,VALID,0.182422,
2011-01-14, 03:35:04,VALID,915.544,VALID,0,VALID,96.9775,VALID,0,VALID,19.0593,VALID,17,VALID,0.0183594,
2011-01-14, 03:36:04,VALID,915.5,VALID,0,VALID,96.947,VALID,0,VALID,19.0384,VALID,17,VALID,0.414844,
2011-01-14, 03:37:04,VALID,915.504,VALID,0,VALID,96.9317,VALID,0,VALID,19.0398,VALID,17,VALID,0.507422,
2011-01-14, 03:38:04,VALID,915.497,VALID,0,VALID,96.9622,VALID,0,VALID,19.0189,VALID,17,VALID,0.328906,
2011-01-14, 03:39:04,VALID,915.479,VALID,0,VALID,96.9775,VALID,0,VALID,19.0398,VALID,17,VALID,0.234766,
2011-01-14, 03:40:04,VALID,915.461,VALID,0,VALID,96.9622,VALID,0,VALID,19.0593,VALID,17,VALID,0.129297,
2011-01-14, 03:41:04,VALID,915.468,VALID,0,VALID,96.9546,VALID,0,VALID,19.0203,VALID,17,VALID,0,
2011-01-14, 03:42:04,VALID,915.47,VALID,0,VALID,96.9241,VALID,0,VALID,19.0008,VALID,17,VALID,0,
2011-01-14, 03:43:04,VALID,915.479,VALID,0,VALID,96.8555,VALID,0,VALID,18.9424,VALID,17,VALID,0,
2011-01-14, 03:44:04,VALID,915.456,VALID,0,VALID,96.8479,VALID,0,VALID,18.9019,VALID,17,VALID,0.302344,
2011-01-14, 03:45:04,VALID,915.451,VALID,0,VALID,96.8174,VALID,0,VALID,18.8644,VALID,17,VALID,0.599609,
2011-01-14, 03:46:04,VALID,915.487,VALID,0,VALID,96.8707,VALID,0,VALID,18.8449,VALID,17,VALID,0.860547,
2011-01-14, 03:47:04,VALID,915.474,VALID,0,VALID,96.9241,VALID,0,VALID,18.8644,VALID,17,VALID,0.767578,
2011-01-14, 03:48:04,VALID,915.48,VALID,0,VALID,96.9241,VALID,0,VALID,18.8449,VALID,17,VALID,0.472266,